Time,TemperatureF,DewpointF,PressureIn,WindDirection,WindDirectionDegrees,WindSpeedMPH,WindSpeedGustMPH,Humidity,HourlyPrecipIn,Conditions,Clouds,dailyrainin,SoftwareType,DateUTC
2013-09-02 00:02:00,77.5,72.0,29.44,NNE,22,0.0,0.0,83,0.00,,,0.00,WUHU21623XXSP,2013-09-02 04:02:00,
2013-09-02 00:07:00,77.5,72.0,29.44,NNE,22,0.0,0.0,83,0.00,,,0.00,WUHU21623XXSP,2013-09-02 04:07:00,
2013-09-02 00:12:00,77.5,72.0,29.45,NNE,22,0.0,0.0,83,0.00,,,0.00,WUHU21623XXSP,2013-09-02 04:12:00,
2013-09-02 00:17:00,77.4,71.8,29.44,NNE,22,0.0,0.0,83,0.00,,,0.00,WUHU21623XXSP,2013-09-02 04:17:00,
2013-09-02 00:22:00,77.4,71.8,29.44,NNE,22,0.0,0.0,83,0.00,,,0.00,WUHU21623XXSP,2013-09-02 04:22:00,
2013-09-02 00:27:00,77.2,71.8,29.43,NNE,22,0.0,0.0,83,0.00,,,0.00,WUHU21623XXSP,2013-09-02 04:27:00,
2013-09-02 00:32:00,77.2,71.6,29.44,NNE,22,0.0,0.0,83,0.00,,,0.00,WUHU21623XXSP,2013-09-02 04:32:00,
2013-09-02 00:37:00,77.2,71.6,29.44,NNE,22,0.0,0.0,83,0.00,,,0.00,WUHU21623XXSP,2013-09-02 04:37:00,
2013-09-02 00:42:00,77.2,71.6,29.44,NNE,22,0.0,0.0,83,0.00,,,0.00,WUHU21623XXSP,2013-09-02 04:42:00,
2013-09-02 00:47:00,77.2,71.6,29.44,NNE,22,0.0,0.0,84,0.00,,,0.00,WUHU21623XXSP,2013-09-02 04:47:00,
2013-09-02 00:52:00,77.0,71.8,29.43,NNE,22,0.0,0.0,84,0.00,,,0.00,WUHU21623XXSP,2013-09-02 04:52:00,
2013-09-02 00:57:00,77.0,71.8,29.43,NNE,22,0.0,0.0,84,0.00,,,0.00,WUHU21623XXSP,2013-09-02 04:57:00,
2013-09-02 01:02:00,77.0,71.8,29.44,NNE,22,0.0,0.0,84,0.00,,,0.00,WUHU21623XXSP,2013-09-02 05:02:00,
2013-09-02 01:08:00,76.8,71.6,29.43,NNE,22,0.0,0.0,84,0.00,,,0.00,WUHU21623XXSP,2013-09-02 05:08:00,
2013-09-02 01:13:00,76.8,71.6,29.43,NNE,22,0.0,0.0,84,0.00,,,0.00,WUHU21623XXSP,2013-09-02 05:13:00,
2013-09-02 01:18:00,76.8,71.6,29.44,NNE,22,0.0,0.0,84,0.00,,,0.00,WUHU21623XXSP,2013-09-02 05:18:00,
2013-09-02 01:23:00,76.8,71.6,29.43,NNE,22,0.0,0.0,84,0.00,,,0.00,WUHU21623XXSP,2013-09-02 05:23:00,
2013-09-02 01:28:00,76.8,71.6,29.43,NNE,22,0.0,0.0,84,0.00,,,0.00,WUHU21623XXSP,2013-09-02 05:28:00,
2013-09-02 01:33:00,76.8,71.6,29.43,NNE,22,0.0,0.0,84,0.00,,,0.00,WUHU21623XXSP,2013-09-02 05:33:00,
2013-09-02 01:38:00,76.8,71.6,29.43,NNE,22,0.0,0.0,84,0.00,,,0.00,WUHU21623XXSP,2013-09-02 05:38:00,
2013-09-02 01:43:00,76.8,72.0,29.43,NNE,22,0.0,0.0,85,0.00,,,0.00,WUHU21623XXSP,2013-09-02 05:43:00,
2013-09-02 01:48:00,76.8,72.0,29.43,NNE,22,0.0,0.0,85,0.00,,,0.00,WUHU21623XXSP,2013-09-02 05:48:00,
2013-09-02 01:53:00,76.8,72.0,29.43,NNE,22,0.0,0.0,85,0.00,,,0.00,WUHU21623XXSP,2013-09-02 05:53:00,
2013-09-02 01:58:00,76.8,72.0,29.42,NNE,22,0.0,0.0,85,0.00,,,0.00,WUHU21623XXSP,2013-09-02 05:58:00,
2013-09-02 02:03:00,76.8,72.0,29.42,NNE,22,0.0,0.0,85,0.00,,,0.00,WUHU21623XXSP,2013-09-02 06:03:00,
2013-09-02 02:08:00,76.6,71.8,29.42,NNE,22,0.0,0.0,85,0.00,,,0.00,WUHU21623XXSP,2013-09-02 06:08:00,
2013-09-02 02:13:00,76.6,71.8,29.42,NNE,22,0.0,0.0,85,0.00,,,0.00,WUHU21623XXSP,2013-09-02 06:13:00,
2013-09-02 02:18:00,76.6,71.8,29.42,NNE,22,0.0,0.0,85,0.00,,,0.00,WUHU21623XXSP,2013-09-02 06:18:00,
2013-09-02 02:23:00,76.6,71.8,29.41,NNE,22,0.0,0.0,85,0.00,,,0.00,WUHU21623XXSP,2013-09-02 06:23:00,
2013-09-02 02:28:00,76.6,71.8,29.41,NNE,22,0.0,0.0,85,0.00,,,0.00,WUHU21623XXSP,2013-09-02 06:28:00,
2013-09-02 02:33:00,76.6,71.8,29.41,NNE,22,0.0,0.0,85,0.00,,,0.00,WUHU21623XXSP,2013-09-02 06:33:00,
2013-09-02 02:38:00,76.6,71.8,29.41,NNE,22,0.0,0.0,85,0.00,,,0.00,WUHU21623XXSP,2013-09-02 06:38:00,
2013-09-02 02:43:00,76.5,71.6,29.41,NNE,22,0.0,0.0,85,0.00,,,0.00,WUHU21623XXSP,2013-09-02 06:43:00,
2013-09-02 02:48:00,76.5,71.6,29.41,NNE,22,0.0,0.0,85,0.00,,,0.00,WUHU21623XXSP,2013-09-02 06:48:00,
2013-09-02 02:53:00,76.5,71.6,29.40,NNE,22,0.0,0.0,85,0.00,,,0.00,WUHU21623XXSP,2013-09-02 06:53:00,
2013-09-02 02:58:00,76.3,71.5,29.40,NNE,22,0.0,0.0,85,0.00,,,0.00,WUHU21623XXSP,2013-09-02 06:58:00,
2013-09-02 03:03:00,76.3,71.5,29.40,NNE,22,0.0,0.0,85,0.00,,,0.00,WUHU21623XXSP,2013-09-02 07:03:00,
2013-09-02 03:08:00,76.3,71.5,29.40,NNE,22,0.0,0.0,85,0.00,,,0.00,WUHU21623XXSP,2013-09-02 07:08:00,
2013-09-02 03:13:00,76.3,71.5,29.40,NNE,22,0.0,0.0,85,0.00,,,0.00,WUHU21623XXSP,2013-09-02 07:13:00,
2013-09-02 03:18:00,76.3,71.8,29.40,NNE,22,0.0,0.0,86,0.00,,,0.00,WUHU21623XXSP,2013-09-02 07:18:00,
2013-09-02 03:23:00,76.1,71.6,29.40,NNE,22,0.0,0.0,86,0.00,,,0.00,WUHU21623XXSP,2013-09-02 07:23:00,
2013-09-02 03:28:00,76.3,71.8,29.40,NNE,22,0.0,0.0,86,0.00,,,0.00,WUHU21623XXSP,2013-09-02 07:28:00,
2013-09-02 03:33:00,76.1,71.6,29.40,NNE,22,0.0,0.0,86,0.00,,,0.00,WUHU21623XXSP,2013-09-02 07:33:00,
2013-09-02 03:38:00,76.1,71.6,29.40,NNE,22,0.0,0.0,86,0.00,,,0.00,WUHU21623XXSP,2013-09-02 07:38:00,
2013-09-02 03:43:00,76.1,71.6,29.40,NNE,22,0.0,0.0,86,0.00,,,0.00,WUHU21623XXSP,2013-09-02 07:43:00,
2013-09-02 03:48:00,76.1,71.6,29.40,NNE,22,0.0,0.0,86,0.00,,,0.00,WUHU21623XXSP,2013-09-02 07:48:00,
2013-09-02 03:53:00,76.1,71.6,29.40,NNE,22,0.0,0.0,86,0.00,,,0.00,WUHU21623XXSP,2013-09-02 07:53:00,
2013-09-02 03:58:00,76.1,71.6,29.40,NNE,22,0.0,0.0,86,0.00,,,0.00,WUHU21623XXSP,2013-09-02 07:58:00,
2013-09-02 04:03:00,75.9,71.5,29.40,NNE,22,0.0,0.0,86,0.00,,,0.00,WUHU21623XXSP,2013-09-02 08:03:00,
2013-09-02 04:08:00,75.9,71.5,29.40,NNE,22,0.0,0.0,86,0.00,,,0.00,WUHU21623XXSP,2013-09-02 08:08:00,
2013-09-02 04:13:00,75.9,71.5,29.40,NNE,22,0.0,0.0,86,0.00,,,0.00,WUHU21623XXSP,2013-09-02 08:13:00,
2013-09-02 04:18:00,75.9,71.5,29.40,NNE,22,0.0,0.0,86,0.00,,,0.00,WUHU21623XXSP,2013-09-02 08:18:00,
2013-09-02 04:23:00,75.9,71.5,29.40,NNE,22,0.0,0.0,86,0.00,,,0.00,WUHU21623XXSP,2013-09-02 08:23:00,
2013-09-02 04:28:00,75.9,71.5,29.40,NNE,22,0.0,0.0,86,0.00,,,0.00,WUHU21623XXSP,2013-09-02 08:28:00,
2013-09-02 04:33:00,75.7,71.3,29.40,NNE,22,0.0,0.0,86,0.00,,,0.00,WUHU21623XXSP,2013-09-02 08:33:00,
2013-09-02 04:38:00,75.7,71.3,29.40,NNE,22,0.0,0.0,86,0.00,,,0.00,WUHU21623XXSP,2013-09-02 08:38:00,
2013-09-02 04:43:00,75.9,71.5,29.40,NNE,22,0.0,0.0,86,0.00,,,0.00,WUHU21623XXSP,2013-09-02 08:43:00,
2013-09-02 04:48:00,75.7,71.3,29.39,NNE,22,0.0,0.0,86,0.00,,,0.00,WUHU21623XXSP,2013-09-02 08:48:00,
2013-09-02 04:53:00,75.7,71.3,29.39,NNE,22,0.0,0.0,86,0.00,,,0.00,WUHU21623XXSP,2013-09-02 08:53:00,
2013-09-02 04:58:00,75.7,71.3,29.39,NNE,22,0.0,0.0,86,0.00,,,0.00,WUHU21623XXSP,2013-09-02 08:58:00,
2013-09-02 05:03:00,75.7,71.3,29.39,NNE,22,0.0,0.0,86,0.00,,,0.00,WUHU21623XXSP,2013-09-02 09:03:00,
2013-09-02 05:08:00,75.7,71.3,29.39,NNE,22,0.0,0.0,86,0.00,,,0.00,WUHU21623XXSP,2013-09-02 09:08:00,
2013-09-02 05:13:00,75.7,71.3,29.39,NNE,22,0.0,0.0,86,0.00,,,0.00,WUHU21623XXSP,2013-09-02 09:13:00,
2013-09-02 05:18:00,75.6,71.1,29.39,NNE,22,0.0,0.0,86,0.00,,,0.00,WUHU21623XXSP,2013-09-02 09:18:00,
2013-09-02 05:23:00,75.6,71.1,29.39,NNE,22,0.0,0.0,86,0.00,,,0.00,WUHU21623XXSP,2013-09-02 09:23:00,
2013-09-02 05:28:00,75.6,71.1,29.39,NNE,22,0.0,0.0,86,0.00,,,0.00,WUHU21623XXSP,2013-09-02 09:28:00,
2013-09-02 05:33:00,75.4,70.9,29.40,NNE,22,0.0,0.0,86,0.00,,,0.00,WUHU21623XXSP,2013-09-02 09:33:00,
2013-09-02 05:38:00,75.4,70.9,29.40,NNE,22,0.0,0.0,86,0.00,,,0.00,WUHU21623XXSP,2013-09-02 09:38:00,
2013-09-02 05:43:00,75.4,70.9,29.40,NNE,22,0.0,0.0,86,0.00,,,0.00,WUHU21623XXSP,2013-09-02 09:43:00,
2013-09-02 05:48:00,75.4,70.9,29.40,NNE,22,0.0,0.0,86,0.00,,,0.00,WUHU21623XXSP,2013-09-02 09:48:00,
2013-09-02 05:53:00,75.4,71.3,29.40,NNE,22,0.0,0.0,87,0.00,,,0.00,WUHU21623XXSP,2013-09-02 09:53:00,
2013-09-02 05:58:00,75.4,71.3,29.40,NNE,22,0.0,0.0,87,0.00,,,0.00,WUHU21623XXSP,2013-09-02 09:58:00,
2013-09-02 06:03:00,75.4,71.3,29.41,NNE,22,0.0,0.0,87,0.00,,,0.00,WUHU21623XXSP,2013-09-02 10:03:00,
2013-09-02 06:08:00,75.4,71.3,29.41,NNE,22,0.0,0.0,87,0.00,,,0.00,WUHU21623XXSP,2013-09-02 10:08:00,
2013-09-02 06:13:00,75.4,71.3,29.41,NNE,22,0.0,0.0,87,0.00,,,0.00,WUHU21623XXSP,2013-09-02 10:13:00,
2013-09-02 06:18:00,75.4,71.3,29.41,NNE,22,0.0,0.0,87,0.00,,,0.00,WUHU21623XXSP,2013-09-02 10:18:00,
2013-09-02 06:23:00,75.4,71.3,29.41,NNE,22,0.0,0.0,87,0.00,,,0.00,WUHU21623XXSP,2013-09-02 10:23:00,
2013-09-02 06:28:00,75.4,71.3,29.41,NNE,22,0.0,0.0,87,0.00,,,0.00,WUHU21623XXSP,2013-09-02 10:28:00,
2013-09-02 06:33:00,75.4,71.3,29.41,NNE,22,0.0,0.0,87,0.00,,,0.00,WUHU21623XXSP,2013-09-02 10:33:00,
2013-09-02 06:38:00,75.4,71.3,29.41,NNE,22,0.0,0.0,87,0.00,,,0.00,WUHU21623XXSP,2013-09-02 10:38:00,
2013-09-02 06:43:00,75.2,71.3,29.41,NNE,22,0.0,0.0,87,0.00,,,0.00,WUHU21623XXSP,2013-09-02 10:43:00,
2013-09-02 06:48:00,75.2,71.3,29.42,NNE,22,0.0,0.0,87,0.00,,,0.00,WUHU21623XXSP,2013-09-02 10:48:00,
2013-09-02 06:53:00,75.2,71.1,29.42,NNE,22,0.0,0.0,87,0.00,,,0.00,WUHU21623XXSP,2013-09-02 10:53:00,
2013-09-02 06:58:00,75.0,70.9,29.43,NNE,22,0.0,0.0,87,0.00,,,0.00,WUHU21623XXSP,2013-09-02 10:58:00,
2013-09-02 07:03:00,75.2,71.1,29.42,NNE,22,0.0,0.0,87,0.00,,,0.00,WUHU21623XXSP,2013-09-02 11:03:00,
2013-09-02 07:08:00,75.4,71.3,29.43,NNE,22,0.0,0.0,87,0.00,,,0.00,WUHU21623XXSP,2013-09-02 11:08:00,
2013-09-02 07:13:00,75.4,71.3,29.43,NNE,22,0.0,0.0,87,0.00,,,0.00,WUHU21623XXSP,2013-09-02 11:13:00,
2013-09-02 07:18:00,75.4,71.3,29.43,NNE,22,0.0,0.0,87,0.00,,,0.00,WUHU21623XXSP,2013-09-02 11:18:00,
2013-09-02 07:23:00,75.4,71.3,29.43,NNE,22,0.0,0.0,87,0.00,,,0.00,WUHU21623XXSP,2013-09-02 11:23:00,
2013-09-02 07:28:00,75.6,71.5,29.43,NNE,22,0.0,0.0,87,0.00,,,0.00,WUHU21623XXSP,2013-09-02 11:28:00,
2013-09-02 07:33:00,75.7,71.6,29.44,NNE,22,0.0,0.0,87,0.00,,,0.00,WUHU21623XXSP,2013-09-02 11:33:00,
2013-09-02 07:38:00,75.9,71.8,29.44,NNE,22,0.0,0.0,87,0.00,,,0.00,WUHU21623XXSP,2013-09-02 11:38:00,
2013-09-02 07:43:00,76.1,72.3,29.44,NNE,22,0.0,0.0,88,0.00,,,0.00,WUHU21623XXSP,2013-09-02 11:43:00,
2013-09-02 07:48:00,76.3,72.5,29.44,NNE,22,0.0,0.0,88,0.00,,,0.00,WUHU21623XXSP,2013-09-02 11:48:00,
2013-09-02 07:53:00,76.6,72.9,29.44,SSE,157,0.0,0.0,88,0.00,,,0.00,WUHU21623XXSP,2013-09-02 11:53:00,
2013-09-02 07:58:00,76.6,72.9,29.44,NNE,22,0.0,0.0,88,0.00,,,0.00,WUHU21623XXSP,2013-09-02 11:58:00,
2013-09-02 08:03:00,76.8,73.0,29.44,NNE,22,0.0,0.0,88,0.00,,,0.00,WUHU21623XXSP,2013-09-02 12:03:00,
2013-09-02 08:08:00,77.2,73.4,29.44,NNE,22,0.0,0.0,88,0.00,,,0.00,WUHU21623XXSP,2013-09-02 12:08:00,
2013-09-02 08:13:00,77.5,73.6,29.44,NNE,22,0.0,0.0,88,0.00,,,0.00,WUHU21623XXSP,2013-09-02 12:13:00,
2013-09-02 08:18:00,77.7,73.9,29.45,NNE,22,0.0,0.0,88,0.00,,,0.00,WUHU21623XXSP,2013-09-02 12:18:00,
2013-09-02 08:23:00,78.1,74.3,29.44,NNE,22,0.0,0.0,88,0.00,,,0.00,WUHU21623XXSP,2013-09-02 12:23:00,
2013-09-02 08:28:00,78.4,74.7,29.45,NNE,22,0.0,0.0,88,0.00,,,0.00,WUHU21623XXSP,2013-09-02 12:28:00,
2013-09-02 08:33:00,78.6,74.8,29.45,North,0,0.0,0.0,88,0.00,,,0.00,WUHU21623XXSP,2013-09-02 12:33:00,
2013-09-02 08:38:00,79.2,75.3,29.45,NNE,22,0.0,0.0,88,0.00,,,0.00,WUHU21623XXSP,2013-09-02 12:38:00,
2013-09-02 08:43:00,79.7,76.2,29.45,North,0,0.0,0.0,89,0.00,,,0.00,WUHU21623XXSP,2013-09-02 12:43:00,
2013-09-02 08:48:00,80.4,76.5,29.45,North,0,0.0,0.0,89,0.00,,,0.00,WUHU21623XXSP,2013-09-02 12:48:00,
2013-09-02 08:53:00,80.8,77.2,29.45,NW,315,0.0,0.0,89,0.00,,,0.00,WUHU21623XXSP,2013-09-02 12:53:00,
2013-09-02 08:58:00,81.5,77.6,29.45,NW,315,0.0,0.0,88,0.00,,,0.00,WUHU21623XXSP,2013-09-02 12:58:00,
2013-09-02 09:03:00,81.9,77.9,29.46,NW,315,0.0,0.0,88,0.00,,,0.00,WUHU21623XXSP,2013-09-02 13:03:00,
2013-09-02 09:08:00,82.2,78.1,29.45,NW,315,0.0,0.0,88,0.00,,,0.00,WUHU21623XXSP,2013-09-02 13:08:00,
2013-09-02 09:13:00,82.8,78.5,29.45,NW,315,0.0,0.0,87,0.00,,,0.00,WUHU21623XXSP,2013-09-02 13:13:00,
2013-09-02 09:18:00,83.1,78.7,29.45,NW,315,0.0,0.0,87,0.00,,,0.00,WUHU21623XXSP,2013-09-02 13:18:00,
2013-09-02 09:23:00,83.3,79.0,29.46,NW,315,0.0,0.0,87,0.00,,,0.00,WUHU21623XXSP,2013-09-02 13:23:00,
2013-09-02 09:28:00,84.0,79.3,29.46,NW,315,0.0,0.0,86,0.00,,,0.00,WUHU21623XXSP,2013-09-02 13:28:00,
2013-09-02 09:33:00,84.2,79.2,29.46,NW,315,0.0,0.0,85,0.00,,,0.00,WUHU21623XXSP,2013-09-02 13:33:00,
2013-09-02 09:38:00,84.6,79.5,29.46,NW,315,0.0,0.0,85,0.00,,,0.00,WUHU21623XXSP,2013-09-02 13:38:00,
2013-09-02 09:43:00,84.9,79.2,29.46,NW,315,0.0,0.0,83,0.00,,,0.00,WUHU21623XXSP,2013-09-02 13:43:00,
2013-09-02 09:48:00,85.5,79.9,29.46,NW,315,0.0,0.0,83,0.00,,,0.00,WUHU21623XXSP,2013-09-02 13:48:00,
2013-09-02 09:53:00,85.8,80.1,29.46,West,270,0.0,0.0,83,0.00,,,0.00,WUHU21623XXSP,2013-09-02 13:53:00,
2013-09-02 09:58:00,86.4,80.2,29.46,SW,225,0.0,0.0,82,0.00,,,0.00,WUHU21623XXSP,2013-09-02 13:58:00,
2013-09-02 10:03:00,86.7,80.2,29.46,SSW,202,0.0,0.0,81,0.00,,,0.00,WUHU21623XXSP,2013-09-02 14:03:00,
2013-09-02 10:08:00,86.7,79.9,29.46,South,180,0.0,0.0,80,0.00,,,0.00,WUHU21623XXSP,2013-09-02 14:08:00,
2013-09-02 10:13:00,87.1,79.8,29.47,South,180,0.0,0.0,79,0.00,,,0.00,WUHU21623XXSP,2013-09-02 14:13:00,
2013-09-02 10:18:00,87.6,80.4,29.47,South,180,0.0,0.0,79,0.00,,,0.00,WUHU21623XXSP,2013-09-02 14:18:00,
2013-09-02 10:23:00,88.3,80.9,29.47,South,180,0.0,0.0,78,0.00,,,0.00,WUHU21623XXSP,2013-09-02 14:23:00,
2013-09-02 10:28:00,88.9,80.3,29.47,West,270,0.0,0.0,76,0.00,,,0.00,WUHU21623XXSP,2013-09-02 14:28:00,
2013-09-02 10:33:00,88.9,79.5,29.47,West,270,0.0,0.0,74,0.00,,,0.00,WUHU21623XXSP,2013-09-02 14:33:00,
2013-09-02 10:38:00,89.2,79.4,29.48,WSW,247,0.0,0.0,73,0.00,,,0.00,WUHU21623XXSP,2013-09-02 14:38:00,
2013-09-02 10:43:00,89.8,79.6,29.48,South,180,0.0,0.0,72,0.00,,,0.00,WUHU21623XXSP,2013-09-02 14:43:00,
2013-09-02 10:48:00,89.4,78.8,29.48,South,180,0.0,0.0,71,0.00,,,0.00,WUHU21623XXSP,2013-09-02 14:48:00,
2013-09-02 10:53:00,89.4,78.8,29.48,WSW,247,0.0,0.0,71,0.00,,,0.00,WUHU21623XXSP,2013-09-02 14:53:00,
2013-09-02 10:58:00,90.1,79.5,29.48,SSW,202,0.0,0.0,71,0.00,,,0.00,WUHU21623XXSP,2013-09-02 14:58:00,
2013-09-02 11:03:00,90.7,79.6,29.47,South,180,0.0,0.0,70,0.00,,,0.00,WUHU21623XXSP,2013-09-02 15:03:00,
2013-09-02 11:08:00,91.2,79.1,29.48,SSW,202,0.0,0.0,68,0.00,,,0.00,WUHU21623XXSP,2013-09-02 15:08:00,
2013-09-02 11:13:00,91.2,78.2,29.48,WSW,247,0.0,0.0,66,0.00,,,0.00,WUHU21623XXSP,2013-09-02 15:13:00,
2013-09-02 11:18:00,91.4,78.4,29.48,West,270,0.0,0.0,66,0.00,,,0.00,WUHU21623XXSP,2013-09-02 15:18:00,
2013-09-02 11:23:00,91.6,77.7,29.48,West,270,0.0,0.0,65,0.00,,,0.00,WUHU21623XXSP,2013-09-02 15:23:00,
2013-09-02 11:28:00,91.9,78.4,29.48,WSW,247,0.0,0.0,65,0.00,,,0.00,WUHU21623XXSP,2013-09-02 15:28:00,
2013-09-02 11:33:00,91.6,78.1,29.48,SSW,202,0.0,0.0,65,0.00,,,0.00,WUHU21623XXSP,2013-09-02 15:33:00,
2013-09-02 11:38:00,91.9,78.4,29.47,SSW,202,0.0,0.0,65,0.00,,,0.00,WUHU21623XXSP,2013-09-02 15:38:00,
2013-09-02 11:43:00,92.8,78.9,29.47,WSW,247,0.0,0.0,64,0.00,,,0.00,WUHU21623XXSP,2013-09-02 15:43:00,
2013-09-02 11:48:00,93.0,78.6,29.48,SSW,202,0.0,0.0,63,0.00,,,0.00,WUHU21623XXSP,2013-09-02 15:48:00,
2013-09-02 11:53:00,93.6,79.1,29.47,WSW,247,0.0,0.0,63,0.00,,,0.00,WUHU21623XXSP,2013-09-02 15:53:00,
2013-09-02 11:58:00,94.1,78.9,29.47,West,270,0.0,0.0,61,0.00,,,0.00,WUHU21623XXSP,2013-09-02 15:58:00,
2013-09-02 12:03:00,94.1,78.2,29.47,WNW,292,0.0,0.0,60,0.00,,,0.00,WUHU21623XXSP,2013-09-02 16:03:00,
2013-09-02 12:08:00,93.6,77.1,29.47,WNW,292,0.0,0.0,59,0.00,,,0.00,WUHU21623XXSP,2013-09-02 16:08:00,
2013-09-02 12:13:00,93.4,76.4,29.47,West,270,0.0,0.0,58,0.00,,,0.00,WUHU21623XXSP,2013-09-02 16:13:00,
2013-09-02 12:18:00,93.9,76.9,29.46,SW,225,0.0,0.0,58,0.00,,,0.00,WUHU21623XXSP,2013-09-02 16:18:00,
2013-09-02 12:23:00,94.3,78.3,29.46,SE,135,0.0,0.0,60,0.00,,,0.00,WUHU21623XXSP,2013-09-02 16:23:00,
2013-09-02 12:28:00,94.8,78.8,29.46,SE,135,0.0,0.0,60,0.00,,,0.00,WUHU21623XXSP,2013-09-02 16:28:00,
2013-09-02 12:33:00,95.0,79.0,29.45,ESE,112,0.0,0.0,60,0.00,,,0.00,WUHU21623XXSP,2013-09-02 16:33:00,
2013-09-02 12:38:00,94.6,78.7,29.45,SSE,157,0.0,0.0,60,0.00,,,0.00,WUHU21623XXSP,2013-09-02 16:38:00,
2013-09-02 12:43:00,93.6,77.7,29.45,SSE,157,0.0,0.0,60,0.00,,,0.00,WUHU21623XXSP,2013-09-02 16:43:00,
2013-09-02 12:48:00,93.0,77.6,29.45,ESE,112,0.0,0.0,61,0.00,,,0.00,WUHU21623XXSP,2013-09-02 16:48:00,
2013-09-02 12:53:00,93.2,77.8,29.45,SE,135,0.0,0.0,61,0.00,,,0.00,WUHU21623XXSP,2013-09-02 16:53:00,
2013-09-02 12:59:00,93.0,77.6,29.45,SE,135,0.0,0.0,61,0.00,,,0.00,WUHU21623XXSP,2013-09-02 16:59:00,
2013-09-02 13:04:00,92.8,77.5,29.46,SSE,157,0.0,0.0,61,0.00,,,0.00,WUHU21623XXSP,2013-09-02 17:04:00,
2013-09-02 13:09:00,93.4,78.0,29.45,East,90,0.0,0.0,61,0.00,,,0.00,WUHU21623XXSP,2013-09-02 17:09:00,
2013-09-02 13:14:00,93.0,77.2,29.45,ESE,112,0.0,0.0,60,0.00,,,0.00,WUHU21623XXSP,2013-09-02 17:14:00,
2013-09-02 13:19:00,92.3,76.9,29.45,SE,135,0.0,0.0,61,0.00,,,0.00,WUHU21623XXSP,2013-09-02 17:19:00,
2013-09-02 13:24:00,91.2,75.9,29.45,SSE,157,0.0,0.0,61,0.00,,,0.00,WUHU21623XXSP,2013-09-02 17:24:00,
2013-09-02 13:29:00,90.7,76.3,29.45,ESE,112,0.0,0.0,63,0.00,,,0.00,WUHU21623XXSP,2013-09-02 17:29:00,
2013-09-02 13:34:00,90.1,76.3,29.45,ESE,112,0.0,0.0,64,0.00,,,0.00,WUHU21623XXSP,2013-09-02 17:34:00,
2013-09-02 13:39:00,89.4,76.1,29.45,SSE,157,0.0,0.0,65,0.00,,,0.00,WUHU21623XXSP,2013-09-02 17:39:00,
2013-09-02 13:44:00,88.9,76.0,29.44,ESE,112,0.0,0.0,66,0.00,,,0.00,WUHU21623XXSP,2013-09-02 17:44:00,
2013-09-02 13:49:00,88.3,76.0,29.44,SE,135,0.0,0.0,67,0.00,,,0.00,WUHU21623XXSP,2013-09-02 17:49:00,
2013-09-02 13:54:00,88.0,76.1,29.44,ESE,112,0.0,0.0,68,0.00,,,0.00,WUHU21623XXSP,2013-09-02 17:54:00,
2013-09-02 13:59:00,87.8,76.4,29.44,SE,135,0.0,0.0,69,0.00,,,0.00,WUHU21623XXSP,2013-09-02 17:59:00,
2013-09-02 14:04:00,87.4,76.0,29.45,SSE,157,0.0,0.0,69,0.00,,,0.00,WUHU21623XXSP,2013-09-02 18:04:00,
2013-09-02 14:09:00,87.1,76.2,29.45,SSE,157,0.0,0.0,70,0.00,,,0.00,WUHU21623XXSP,2013-09-02 18:09:00,
2013-09-02 14:14:00,86.9,76.0,29.44,SSE,157,0.0,0.0,70,0.00,,,0.00,WUHU21623XXSP,2013-09-02 18:14:00,
2013-09-02 14:19:00,86.5,76.2,29.44,SSE,157,0.0,0.0,71,0.00,,,0.00,WUHU21623XXSP,2013-09-02 18:19:00,
2013-09-02 14:24:00,86.2,75.8,29.44,South,180,0.0,0.0,71,0.00,,,0.00,WUHU21623XXSP,2013-09-02 18:24:00,
2013-09-02 14:29:00,85.8,76.2,29.45,SSW,202,0.0,0.0,72,0.00,,,0.00,WUHU21623XXSP,2013-09-02 18:29:00,
2013-09-02 14:34:00,85.6,75.6,29.45,South,180,0.0,0.0,72,0.00,,,0.00,WUHU21623XXSP,2013-09-02 18:34:00,
2013-09-02 14:39:00,84.7,74.7,29.45,SSE,157,0.0,0.0,72,0.00,,,0.00,WUHU21623XXSP,2013-09-02 18:39:00,
2013-09-02 14:44:00,84.0,74.0,29.44,SW,225,0.0,0.0,72,0.00,,,0.00,WUHU21623XXSP,2013-09-02 18:44:00,
2013-09-02 14:49:00,83.5,73.1,29.45,South,180,0.0,0.0,71,0.00,,,0.00,WUHU21623XXSP,2013-09-02 18:49:00,
2013-09-02 14:54:00,82.2,72.2,29.45,WSW,247,0.0,0.0,71,0.00,,,0.00,WUHU21623XXSP,2013-09-02 18:54:00,
2013-09-02 14:59:00,81.5,71.5,29.45,SW,225,0.0,0.0,71,0.00,,,0.00,WUHU21623XXSP,2013-09-02 18:59:00,
2013-09-02 15:04:00,80.8,70.5,29.45,SW,225,0.0,0.0,71,0.00,,,0.00,WUHU21623XXSP,2013-09-02 19:04:00,
2013-09-02 15:09:00,79.5,69.7,29.45,WSW,247,0.0,0.0,72,0.00,,,0.00,WUHU21623XXSP,2013-09-02 19:09:00,
2013-09-02 15:14:00,79.0,69.2,29.46,WSW,247,0.0,0.0,72,0.04,,,0.00,WUHU21623XXSP,2013-09-02 19:14:00,
2013-09-02 15:19:00,78.4,68.8,29.47,WSW,247,0.0,0.0,73,0.04,,,0.04,WUHU21623XXSP,2013-09-02 19:19:00,
2013-09-02 15:24:00,77.7,68.4,29.47,WSW,247,0.0,0.0,73,0.04,,,0.04,WUHU21623XXSP,2013-09-02 19:24:00,
2013-09-02 15:29:00,77.5,68.6,29.47,WSW,247,0.0,0.0,74,0.04,,,0.04,WUHU21623XXSP,2013-09-02 19:29:00,
2013-09-02 15:34:00,77.5,68.6,29.46,West,270,0.0,0.0,74,0.06,,,0.04,WUHU21623XXSP,2013-09-02 19:34:00,
2013-09-02 15:39:00,77.4,68.4,29.46,WSW,247,0.0,0.0,74,0.10,,,0.08,WUHU21623XXSP,2013-09-02 19:39:00,
2013-09-02 15:44:00,77.2,68.6,29.46,WSW,247,0.0,0.0,75,0.10,,,0.10,WUHU21623XXSP,2013-09-02 19:44:00,
2013-09-02 15:49:00,77.2,69.0,29.45,WSW,247,0.0,0.0,76,0.10,,,0.10,WUHU21623XXSP,2013-09-02 19:49:00,
2013-09-02 15:54:00,76.8,69.0,29.45,North,0,0.0,0.0,77,0.10,,,0.10,WUHU21623XXSP,2013-09-02 19:54:00,
2013-09-02 15:59:00,76.8,69.0,29.45,North,0,0.0,0.0,77,0.10,,,0.10,WUHU21623XXSP,2013-09-02 19:59:00,
2013-09-02 16:04:00,76.6,69.2,29.45,NNW,337,0.0,0.0,78,0.10,,,0.10,WUHU21623XXSP,2013-09-02 20:04:00,
2013-09-02 16:09:00,76.6,70.0,29.44,NNW,337,0.0,0.0,80,0.08,,,0.10,WUHU21623XXSP,2013-09-02 20:09:00,
2013-09-02 16:14:00,76.6,70.0,29.45,NNW,337,0.0,0.0,80,0.06,,,0.10,WUHU21623XXSP,2013-09-02 20:14:00,
2013-09-02 16:19:00,76.5,70.2,29.44,NNW,337,0.0,0.0,81,0.06,,,0.10,WUHU21623XXSP,2013-09-02 20:19:00,
2013-09-02 16:24:00,76.8,70.5,29.44,NW,315,0.0,0.0,81,0.06,,,0.10,WUHU21623XXSP,2013-09-02 20:24:00,
2013-09-02 16:29:00,77.0,70.7,29.44,NW,315,0.0,0.0,81,0.04,,,0.10,WUHU21623XXSP,2013-09-02 20:29:00,
2013-09-02 16:34:00,77.2,71.2,29.44,NW,315,0.0,0.0,82,0.04,,,0.10,WUHU21623XXSP,2013-09-02 20:34:00,
2013-09-02 16:39:00,77.5,71.6,29.44,NW,315,0.0,0.0,82,0.00,,,0.10,WUHU21623XXSP,2013-09-02 20:39:00,
2013-09-02 16:44:00,77.5,71.6,29.44,NW,315,0.0,0.0,82,0.00,,,0.10,WUHU21623XXSP,2013-09-02 20:44:00,
2013-09-02 16:49:00,77.7,71.8,29.44,West,270,0.0,0.0,82,0.00,,,0.10,WUHU21623XXSP,2013-09-02 20:49:00,
2013-09-02 16:54:00,78.1,72.1,29.44,West,270,0.0,0.0,82,0.00,,,0.10,WUHU21623XXSP,2013-09-02 20:54:00,
2013-09-02 16:59:00,78.1,72.1,29.44,West,270,0.0,0.0,82,0.00,,,0.10,WUHU21623XXSP,2013-09-02 20:59:00,
2013-09-02 17:04:00,78.3,72.3,29.44,West,270,0.0,0.0,82,0.00,,,0.10,WUHU21623XXSP,2013-09-02 21:04:00,
2013-09-02 17:09:00,78.4,72.5,29.43,WNW,292,0.0,0.0,82,0.00,,,0.10,WUHU21623XXSP,2013-09-02 21:09:00,
2013-09-02 17:14:00,78.1,72.1,29.43,NW,315,0.0,0.0,82,0.00,,,0.10,WUHU21623XXSP,2013-09-02 21:14:00,
2013-09-02 17:19:00,78.1,72.5,29.43,NNW,337,0.0,0.0,83,0.00,,,0.10,WUHU21623XXSP,2013-09-02 21:19:00,
2013-09-02 17:24:00,78.1,72.5,29.43,WNW,292,0.0,0.0,83,0.00,,,0.10,WUHU21623XXSP,2013-09-02 21:24:00,
2013-09-02 17:29:00,78.1,72.5,29.43,NW,315,0.0,0.0,83,0.00,,,0.10,WUHU21623XXSP,2013-09-02 21:29:00,
2013-09-02 17:34:00,78.1,72.5,29.42,NW,315,0.0,0.0,83,0.00,,,0.10,WUHU21623XXSP,2013-09-02 21:34:00,
2013-09-02 17:39:00,78.1,72.5,29.42,NNW,337,0.0,0.0,83,0.00,,,0.10,WUHU21623XXSP,2013-09-02 21:39:00,
2013-09-02 17:44:00,78.1,72.5,29.41,North,0,0.0,0.0,83,0.00,,,0.10,WUHU21623XXSP,2013-09-02 21:44:00,
2013-09-02 17:49:00,78.4,72.9,29.41,North,0,0.0,0.0,83,0.00,,,0.10,WUHU21623XXSP,2013-09-02 21:49:00,
2013-09-02 17:54:00,78.6,73.4,29.42,North,0,0.0,0.0,84,0.00,,,0.10,WUHU21623XXSP,2013-09-02 21:54:00,
2013-09-02 17:59:00,78.6,73.4,29.41,North,0,0.0,0.0,84,0.00,,,0.10,WUHU21623XXSP,2013-09-02 21:59:00,
2013-09-02 18:04:00,78.6,73.0,29.41,NNE,22,0.0,0.0,83,0.00,,,0.10,WUHU21623XXSP,2013-09-02 22:04:00,
2013-09-02 18:09:00,79.0,73.4,29.41,NNE,22,0.0,0.0,83,0.00,,,0.10,WUHU21623XXSP,2013-09-02 22:09:00,
2013-09-02 18:14:00,79.0,73.4,29.42,NNE,22,0.0,0.0,83,0.00,,,0.10,WUHU21623XXSP,2013-09-02 22:14:00,
2013-09-02 18:19:00,79.0,73.4,29.41,North,0,0.0,0.0,82,0.00,,,0.10,WUHU21623XXSP,2013-09-02 22:19:00,
2013-09-02 18:24:00,79.0,73.0,29.41,North,0,0.0,0.0,82,0.00,,,0.10,WUHU21623XXSP,2013-09-02 22:24:00,
2013-09-02 18:29:00,79.0,73.0,29.40,North,0,0.0,0.0,82,0.00,,,0.10,WUHU21623XXSP,2013-09-02 22:29:00,
2013-09-02 18:34:00,79.0,73.0,29.40,North,0,0.0,0.0,82,0.00,,,0.10,WUHU21623XXSP,2013-09-02 22:34:00,
2013-09-02 18:39:00,79.0,73.0,29.40,North,0,0.0,0.0,82,0.00,,,0.10,WUHU21623XXSP,2013-09-02 22:39:00,
2013-09-02 18:44:00,78.6,72.3,29.40,North,0,0.0,0.0,81,0.00,,,0.10,WUHU21623XXSP,2013-09-02 22:44:00,
2013-09-02 18:49:00,78.6,72.3,29.40,North,0,0.0,0.0,81,0.00,,,0.10,WUHU21623XXSP,2013-09-02 22:49:00,
2013-09-02 18:54:00,78.6,72.3,29.40,North,0,0.0,0.0,81,0.00,,,0.10,WUHU21623XXSP,2013-09-02 22:54:00,
2013-09-02 18:59:00,78.6,72.0,29.40,North,0,0.0,0.0,80,0.00,,,0.10,WUHU21623XXSP,2013-09-02 22:59:00,
2013-09-02 19:04:00,78.6,72.0,29.40,North,0,0.0,0.0,80,0.00,,,0.10,WUHU21623XXSP,2013-09-02 23:04:00,
2013-09-02 19:09:00,78.6,72.0,29.40,North,0,0.0,0.0,80,0.00,,,0.10,WUHU21623XXSP,2013-09-02 23:09:00,
2013-09-02 19:14:00,78.6,72.0,29.40,North,0,0.0,0.0,80,0.00,,,0.10,WUHU21623XXSP,2013-09-02 23:14:00,
2013-09-02 19:19:00,78.6,72.0,29.40,North,0,0.0,0.0,80,0.00,,,0.10,WUHU21623XXSP,2013-09-02 23:19:00,
2013-09-02 19:24:00,78.4,71.8,29.40,North,0,0.0,0.0,80,0.00,,,0.10,WUHU21623XXSP,2013-09-02 23:24:00,
2013-09-02 19:29:00,78.4,71.8,29.40,North,0,0.0,0.0,80,0.00,,,0.10,WUHU21623XXSP,2013-09-02 23:29:00,
2013-09-02 19:34:00,78.1,71.4,29.40,North,0,0.0,0.0,80,0.00,,,0.10,WUHU21623XXSP,2013-09-02 23:34:00,
2013-09-02 19:39:00,78.1,71.4,29.40,North,0,0.0,0.0,80,0.00,,,0.10,WUHU21623XXSP,2013-09-02 23:39:00,
2013-09-02 19:44:00,77.9,71.2,29.40,North,0,0.0,0.0,80,0.00,,,0.10,WUHU21623XXSP,2013-09-02 23:44:00,
2013-09-02 19:49:00,77.9,71.2,29.40,North,0,0.0,0.0,80,0.00,,,0.10,WUHU21623XXSP,2013-09-02 23:49:00,
2013-09-02 19:54:00,77.7,71.4,29.40,North,0,0.0,0.0,81,0.00,,,0.10,WUHU21623XXSP,2013-09-02 23:54:00,
2013-09-02 19:59:00,77.5,70.9,29.40,North,0,0.0,0.0,80,0.00,,,0.10,WUHU21623XXSP,2013-09-02 23:59:00,
2013-09-02 20:04:00,77.5,70.9,29.40,North,0,0.0,0.0,80,0.00,,,0.10,WUHU21623XXSP,2013-09-03 00:04:00,
2013-09-02 20:09:00,77.4,71.1,29.40,North,0,0.0,0.0,81,0.00,,,0.10,WUHU21623XXSP,2013-09-03 00:09:00,
2013-09-02 20:14:00,77.4,71.1,29.40,North,0,0.0,0.0,81,0.00,,,0.10,WUHU21623XXSP,2013-09-03 00:14:00,
2013-09-02 20:19:00,77.2,70.9,29.40,North,0,0.0,0.0,81,0.00,,,0.10,WUHU21623XXSP,2013-09-03 00:19:00,
2013-09-02 20:24:00,77.2,70.9,29.41,North,0,0.0,0.0,81,0.00,,,0.10,WUHU21623XXSP,2013-09-03 00:24:00,
2013-09-02 20:29:00,77.2,70.9,29.41,North,0,0.0,0.0,81,0.00,,,0.10,WUHU21623XXSP,2013-09-03 00:29:00,
2013-09-02 20:34:00,77.0,70.7,29.41,North,0,0.0,0.0,81,0.00,,,0.10,WUHU21623XXSP,2013-09-03 00:34:00,
2013-09-02 20:39:00,77.0,71.1,29.41,North,0,0.0,0.0,82,0.00,,,0.10,WUHU21623XXSP,2013-09-03 00:39:00,
2013-09-02 20:44:00,76.8,70.9,29.41,North,0,0.0,0.0,82,0.00,,,0.10,WUHU21623XXSP,2013-09-03 00:44:00,
2013-09-02 20:49:00,76.8,70.9,29.43,North,0,0.0,0.0,82,0.00,,,0.10,WUHU21623XXSP,2013-09-03 00:49:00,
2013-09-02 20:54:00,76.6,70.7,29.43,North,0,0.0,0.0,82,0.00,,,0.10,WUHU21623XXSP,2013-09-03 00:54:00,
2013-09-02 20:59:00,76.6,70.7,29.43,North,0,0.0,0.0,82,0.00,,,0.10,WUHU21623XXSP,2013-09-03 00:59:00,
2013-09-02 21:04:00,76.6,70.7,29.43,North,0,0.0,0.0,82,0.00,,,0.10,WUHU21623XXSP,2013-09-03 01:04:00,
2013-09-02 21:09:00,76.6,70.7,29.43,North,0,0.0,0.0,82,0.00,,,0.10,WUHU21623XXSP,2013-09-03 01:09:00,
2013-09-02 21:14:00,76.6,70.7,29.43,North,0,0.0,0.0,82,0.00,,,0.10,WUHU21623XXSP,2013-09-03 01:14:00,
2013-09-02 21:19:00,76.6,70.7,29.43,North,0,0.0,0.0,82,0.00,,,0.10,WUHU21623XXSP,2013-09-03 01:19:00,
2013-09-02 21:24:00,76.6,70.7,29.44,North,0,0.0,0.0,82,0.00,,,0.10,WUHU21623XXSP,2013-09-03 01:24:00,
2013-09-02 21:29:00,76.6,70.7,29.43,North,0,0.0,0.0,82,0.00,,,0.10,WUHU21623XXSP,2013-09-03 01:29:00,
2013-09-02 21:34:00,76.5,70.6,29.44,North,0,0.0,0.0,82,0.00,,,0.10,WUHU21623XXSP,2013-09-03 01:34:00,
2013-09-02 21:39:00,76.5,70.6,29.44,North,0,0.0,0.0,82,0.00,,,0.10,WUHU21623XXSP,2013-09-03 01:39:00,
2013-09-02 21:44:00,76.3,70.4,29.44,North,0,0.0,0.0,82,0.00,,,0.10,WUHU21623XXSP,2013-09-03 01:44:00,
2013-09-02 21:49:00,76.3,70.7,29.44,North,0,0.0,0.0,83,0.00,,,0.10,WUHU21623XXSP,2013-09-03 01:49:00,
2013-09-02 21:54:00,76.3,70.7,29.45,North,0,0.0,0.0,83,0.00,,,0.10,WUHU21623XXSP,2013-09-03 01:54:00,
2013-09-02 21:59:00,76.1,70.6,29.45,North,0,0.0,0.0,83,0.00,,,0.10,WUHU21623XXSP,2013-09-03 01:59:00,
2013-09-02 22:04:00,76.1,70.6,29.44,North,0,0.0,0.0,83,0.00,,,0.10,WUHU21623XXSP,2013-09-03 02:04:00,
2013-09-02 22:09:00,76.1,70.6,29.44,North,0,0.0,0.0,83,0.00,,,0.10,WUHU21623XXSP,2013-09-03 02:09:00,
2013-09-02 22:15:00,75.9,70.4,29.44,North,0,0.0,0.0,83,0.00,,,0.10,WUHU21623XXSP,2013-09-03 02:15:00,
2013-09-02 22:20:00,75.9,70.4,29.44,North,0,0.0,0.0,83,0.00,,,0.10,WUHU21623XXSP,2013-09-03 02:20:00,
2013-09-02 22:25:00,75.9,70.4,29.44,North,0,0.0,0.0,84,0.00,,,0.10,WUHU21623XXSP,2013-09-03 02:25:00,
2013-09-02 22:30:00,75.9,70.8,29.44,North,0,0.0,0.0,84,0.00,,,0.10,WUHU21623XXSP,2013-09-03 02:30:00,
2013-09-02 22:35:00,75.9,70.8,29.44,North,0,0.0,0.0,84,0.00,,,0.10,WUHU21623XXSP,2013-09-03 02:35:00,
2013-09-02 22:40:00,75.7,70.8,29.44,North,0,0.0,0.0,84,0.00,,,0.10,WUHU21623XXSP,2013-09-03 02:40:00,
2013-09-02 22:45:00,75.7,70.6,29.44,North,0,0.0,0.0,84,0.00,,,0.10,WUHU21623XXSP,2013-09-03 02:45:00,
2013-09-02 22:50:00,75.7,70.6,29.44,North,0,0.0,0.0,84,0.00,,,0.10,WUHU21623XXSP,2013-09-03 02:50:00,
2013-09-02 22:55:00,75.7,70.6,29.44,North,0,0.0,0.0,84,0.00,,,0.10,WUHU21623XXSP,2013-09-03 02:55:00,
2013-09-02 23:00:00,75.6,70.4,29.44,North,0,0.0,0.0,84,0.00,,,0.10,WUHU21623XXSP,2013-09-03 03:00:00,
2013-09-02 23:05:00,75.6,70.4,29.44,North,0,0.0,0.0,84,0.00,,,0.10,WUHU21623XXSP,2013-09-03 03:05:00,
2013-09-02 23:10:00,75.6,70.4,29.44,North,0,0.0,0.0,84,0.00,,,0.10,WUHU21623XXSP,2013-09-03 03:10:00,
2013-09-02 23:15:00,75.4,70.3,29.44,North,0,0.0,0.0,84,0.00,,,0.10,WUHU21623XXSP,2013-09-03 03:15:00,
2013-09-02 23:20:00,75.4,70.3,29.43,North,0,0.0,0.0,84,0.00,,,0.10,WUHU21623XXSP,2013-09-03 03:20:00,
2013-09-02 23:25:00,75.4,70.3,29.44,North,0,0.0,0.0,84,0.00,,,0.10,WUHU21623XXSP,2013-09-03 03:25:00,
2013-09-02 23:30:00,75.4,70.3,29.44,North,0,0.0,0.0,84,0.00,,,0.10,WUHU21623XXSP,2013-09-03 03:30:00,
2013-09-02 23:35:00,75.4,70.3,29.44,North,0,0.0,0.0,84,0.00,,,0.10,WUHU21623XXSP,2013-09-03 03:35:00,
2013-09-02 23:40:00,75.4,70.3,29.44,North,0,0.0,0.0,84,0.00,,,0.10,WUHU21623XXSP,2013-09-03 03:40:00,
2013-09-02 23:45:00,75.2,70.1,29.43,North,0,0.0,0.0,84,0.00,,,0.10,WUHU21623XXSP,2013-09-03 03:45:00,
2013-09-02 23:50:00,75.0,69.9,29.44,North,0,0.0,0.0,84,0.00,,,0.10,WUHU21623XXSP,2013-09-03 03:50:00,
2013-09-02 23:55:00,75.0,70.3,29.44,North,0,0.0,0.0,85,0.00,,,0.10,WUHU21623XXSP,2013-09-03 03:55:00,